,,Stat6,,Stat2,,Stat8,,Stat9,,Stat10,,Wind1,,Wind1,
time,status,PA1M_AVG,status,PR1M_SUM,status,RH1M_AVG,status,SR1M_AVG,status,TA1M_AVG,status,W1dAve1m,status,W1sAve1m,
2008-12-04, 00:00:00,VALID,916.8,VALID,0,VALID,100,VALID,-0.0169808,VALID,20.1638,VALID,22,VALID,0.10332,
2008-12-04, 00:01:00,VALID,916.796,VALID,0,VALID,100,VALID,-0.0509425,VALID,20.1676,VALID,19,VALID,0.378196,
2008-12-04, 00:02:00,VALID,916.806,VALID,0,VALID,100,VALID,-0.0339617,VALID,20.1414,VALID,19,VALID,0.840843,
2008-12-04, 00:03:00,VALID,916.819,VALID,0,VALID,100,VALID,-0.0679233,VALID,20.1379,VALID,20,VALID,0.182227,
2008-12-04, 00:04:00,VALID,916.817,VALID,0,VALID,100,VALID,-0.0509425,VALID,20.1186,VALID,18,VALID,0.620722,
2008-12-04, 00:05:00,VALID,916.833,VALID,0,VALID,100,VALID,-0.0849042,VALID,20.1316,VALID,9,VALID,0.213778,
2008-12-04, 00:06:00,VALID,916.833,VALID,0,VALID,100,VALID,-0.0679233,VALID,20.1484,VALID,23,VALID,0.00190549,
2008-12-04, 00:07:00,VALID,916.827,VALID,0,VALID,100,VALID,-0.0339617,VALID,20.1508,VALID,24,VALID,0.0783203,
2008-12-04, 00:08:00,VALID,916.828,VALID,0,VALID,100,VALID,0,VALID,20.1433,VALID,21,VALID,0,
2008-12-04, 00:09:00,VALID,916.822,VALID,0,VALID,100,VALID,0.0339617,VALID,20.1136,VALID,17,VALID,0.2742,
2008-12-04, 00:10:00,VALID,916.803,VALID,0,VALID,100,VALID,0.0679233,VALID,20.1074,VALID,25,VALID,0,
2008-12-04, 00:11:00,VALID,916.804,VALID,0,VALID,100,VALID,0.0339617,VALID,20.1101,VALID,3,VALID,0,
2008-12-04, 00:12:00,VALID,916.789,VALID,0,VALID,100,VALID,0.0509425,VALID,20.1009,VALID,2,VALID,0,
2008-12-04, 00:13:00,VALID,916.776,VALID,0,VALID,100,VALID,0.0509425,VALID,20.0817,VALID,11,VALID,0,
2008-12-04, 00:14:00,VALID,916.757,VALID,0,VALID,100,VALID,0.0339617,VALID,20.0679,VALID,16,VALID,0,
2008-12-04, 00:15:00,VALID,916.721,VALID,0,VALID,100,VALID,0.0339617,VALID,20.0527,VALID,35,VALID,0.946752,
2008-12-04, 00:16:00,VALID,916.709,VALID,0,VALID,100,VALID,0.0169808,VALID,20.0293,VALID,20,VALID,0.551883,
2008-12-04, 00:17:00,VALID,916.721,VALID,0,VALID,100,VALID,0.0509425,VALID,20.0492,VALID,20,VALID,1.45424,
2008-12-04, 00:18:00,VALID,916.711,VALID,0,VALID,100,VALID,0.0679233,VALID,20.0547,VALID,22,VALID,0.559722,
2008-12-04, 00:19:00,VALID,916.708,VALID,0,VALID,100,VALID,0,VALID,20.0722,VALID,19,VALID,0.647743,
2008-12-04, 00:20:00,VALID,916.712,VALID,0,VALID,100,VALID,0.0339617,VALID,20.0649,VALID,19,VALID,0.0117188,
2008-12-04, 00:21:00,VALID,916.713,VALID,0,VALID,100,VALID,0.0169808,VALID,20.0684,VALID,19,VALID,0,
2008-12-04, 00:22:00,VALID,916.697,VALID,0,VALID,100,VALID,0.0339617,VALID,20.0562,VALID,18,VALID,0,
2008-12-04, 00:23:00,VALID,916.687,VALID,0,VALID,100,VALID,-0.0679233,VALID,20.0375,VALID,17,VALID,0,
2008-12-04, 00:24:00,VALID,916.663,VALID,0,VALID,100,VALID,-0.0849042,VALID,20.0308,VALID,17,VALID,0,
2008-12-04, 00:25:00,VALID,916.629,VALID,0,VALID,100,VALID,-0.0339617,VALID,20.018,VALID,17,VALID,0,
2008-12-04, 00:26:00,VALID,916.611,VALID,0,VALID,100,VALID,-0.0849042,VALID,20.0013,VALID,15,VALID,0,
2008-12-04, 00:27:00,VALID,916.601,VALID,0,VALID,100,VALID,-0.0679233,VALID,19.9883,VALID,13,VALID,0,
2008-12-04, 00:28:00,VALID,916.57,VALID,0,VALID,100,VALID,-0.0509425,VALID,20.0183,VALID,25,VALID,0.0120908,
2008-12-04, 00:29:00,VALID,916.573,VALID,0,VALID,100,VALID,-0.0509425,VALID,20.0116,VALID,27,VALID,0.0859375,
2008-12-04, 00:30:00,VALID,916.564,VALID,0,VALID,100,VALID,-0.0509425,VALID,20.0215,VALID,26,VALID,0.00114329,
2008-12-04, 00:31:00,VALID,916.556,VALID,0,VALID,100,VALID,-0.0679233,VALID,20.0186,VALID,26,VALID,0,
2008-12-04, 00:32:00,VALID,916.547,VALID,0,VALID,100,VALID,-0.0509425,VALID,20.0116,VALID,31,VALID,0.00117188,
2008-12-04, 00:33:00,VALID,916.523,VALID,0,VALID,100,VALID,-0.0509425,VALID,19.9888,VALID,18,VALID,0,
2008-12-04, 00:34:00,VALID,916.517,VALID,0,VALID,100,VALID,-0.0509425,VALID,19.9689,VALID,26,VALID,0,
2008-12-04, 00:35:00,VALID,916.515,VALID,0,VALID,100,VALID,-0.0339617,VALID,19.9626,VALID,7,VALID,0,
2008-12-04, 00:36:00,VALID,916.494,VALID,0,VALID,100,VALID,-0.0679233,VALID,19.9566,VALID,16,VALID,0,
2008-12-04, 00:37:00,VALID,916.472,VALID,0,VALID,100,VALID,-0.0849042,VALID,19.9467,VALID,23,VALID,0.0227431,
2008-12-04, 00:38:00,VALID,916.448,VALID,0,VALID,100,VALID,-0.0339617,VALID,19.9429,VALID,26,VALID,0.133176,
2008-12-04, 00:39:00,VALID,916.43,VALID,0,VALID,100,VALID,-0.0509425,VALID,19.9364,VALID,20,VALID,0.442224,
2008-12-04, 00:40:00,VALID,916.428,VALID,0,VALID,100,VALID,-0.0509425,VALID,19.9304,VALID,17,VALID,0.0740327,
2008-12-04, 00:41:00,VALID,916.416,VALID,0.2,VALID,100,VALID,-0.0509425,VALID,19.9267,VALID,22,VALID,0,
2008-12-04, 00:42:00,VALID,916.403,VALID,0,VALID,100,VALID,-0.0339617,VALID,19.9329,VALID,24,VALID,0.133185,
2008-12-04, 00:43:00,VALID,916.4,VALID,0,VALID,100,VALID,-0.0849042,VALID,19.9397,VALID,24,VALID,0.230741,
2008-12-04, 00:44:00,VALID,916.393,VALID,0,VALID,100,VALID,-0.0849042,VALID,19.9367,VALID,22,VALID,0.00446429,
2008-12-04, 00:45:00,VALID,916.387,VALID,0,VALID,100,VALID,-0.0509425,VALID,19.917,VALID,30,VALID,0,
2008-12-04, 00:46:00,VALID,916.388,VALID,0,VALID,100,VALID,-0.0339617,VALID,19.9135,VALID,34,VALID,0,
2008-12-04, 00:47:00,VALID,916.384,VALID,0,VALID,100,VALID,-0.0679233,VALID,19.917,VALID,28,VALID,0.0327035,
2008-12-04, 00:48:00,VALID,916.367,VALID,0,VALID,100,VALID,-0.0339617,VALID,19.9005,VALID,33,VALID,0,
2008-12-04, 00:49:00,VALID,916.368,VALID,0,VALID,100,VALID,-0.0339617,VALID,19.8815,VALID,24,VALID,0,
2008-12-04, 00:50:00,VALID,916.347,VALID,0,VALID,100,VALID,-0.0849042,VALID,19.885,VALID,30,VALID,0.0632813,
2008-12-04, 00:51:00,VALID,916.339,VALID,0,VALID,100,VALID,-0.0679233,VALID,19.8718,VALID,37,VALID,0,
2008-12-04, 00:52:00,VALID,916.331,VALID,0,VALID,100,VALID,0,VALID,19.8453,VALID,26,VALID,0,
2008-12-04, 00:53:00,VALID,916.331,VALID,0,VALID,100,VALID,-0.0169808,VALID,19.8323,VALID,15,VALID,0,
2008-12-04, 00:54:00,VALID,916.321,VALID,0,VALID,100,VALID,-0.0339617,VALID,19.8266,VALID,14,VALID,0,
2008-12-04, 00:55:00,VALID,916.315,VALID,0,VALID,100,VALID,-0.0339617,VALID,19.8523,VALID,14,VALID,0,
2008-12-04, 00:56:00,VALID,916.302,VALID,0,VALID,100,VALID,-0.0169808,VALID,19.8553,VALID,15,VALID,0,
2008-12-04, 00:57:00,VALID,916.299,VALID,0,VALID,100,VALID,0,VALID,19.8748,VALID,15,VALID,0,
2008-12-04, 00:58:00,VALID,916.282,VALID,0,VALID,100,VALID,-0.0339617,VALID,19.872,VALID,15,VALID,0,
2008-12-04, 00:59:00,VALID,916.263,VALID,0,VALID,100,VALID,0,VALID,19.8456,VALID,13,VALID,0,
2008-12-04, 01:00:00,VALID,916.243,VALID,0,VALID,100,VALID,-0.0339617,VALID,19.8326,VALID,22,VALID,0,
2008-12-04, 01:01:00,VALID,916.225,VALID,0,VALID,100,VALID,0,VALID,19.8358,VALID,24,VALID,0,
2008-12-04, 01:02:00,VALID,916.219,VALID,0,VALID,100,VALID,0,VALID,19.8226,VALID,24,VALID,0,
2008-12-04, 01:03:00,VALID,916.201,VALID,0,VALID,100,VALID,-0.0339617,VALID,19.8069,VALID,39,VALID,0.284784,
2008-12-04, 01:04:00,VALID,916.172,VALID,0,VALID,100,VALID,-0.0169808,VALID,19.8004,VALID,40,VALID,0,
2008-12-04, 01:05:00,VALID,916.159,VALID,0,VALID,100,VALID,0,VALID,19.7807,VALID,34,VALID,0,
2008-12-04, 01:06:00,VALID,916.123,VALID,0,VALID,100,VALID,0,VALID,19.7674,VALID,25,VALID,0.0506114,
2008-12-04, 01:07:00,VALID,916.115,VALID,0,VALID,100,VALID,0,VALID,19.7644,VALID,22,VALID,0.0012718,
2008-12-04, 01:08:00,VALID,916.099,VALID,0,VALID,100,VALID,-0.0169808,VALID,19.7415,VALID,21,VALID,0.00852273,
2008-12-04, 01:09:00,VALID,916.078,VALID,0,VALID,100,VALID,0.0169808,VALID,19.7545,VALID,29,VALID,0,
2008-12-04, 01:10:00,VALID,916.058,VALID,0,VALID,100,VALID,0,VALID,19.7612,VALID,28,VALID,0,
2008-12-04, 01:11:00,VALID,916.035,VALID,0,VALID,100,VALID,0,VALID,19.7547,VALID,26,VALID,0.0964134,
2008-12-04, 01:12:00,VALID,916.026,VALID,0,VALID,100,VALID,-0.0169808,VALID,19.7547,VALID,36,VALID,0.0742188,
2008-12-04, 01:13:00,VALID,916.007,VALID,0,VALID,100,VALID,-0.0169808,VALID,19.739,VALID,19,VALID,0.289453,
2008-12-04, 01:14:00,VALID,915.98,VALID,0,VALID,100,VALID,0,VALID,19.6961,VALID,25,VALID,0.187309,
2008-12-04, 01:15:00,VALID,915.979,VALID,0,VALID,100,VALID,0,VALID,19.726,VALID,42,VALID,0.174023,
2008-12-04, 01:16:00,VALID,915.986,VALID,0,VALID,100,VALID,0,VALID,19.7285,VALID,32,VALID,0.0401278,
2008-12-04, 01:17:00,VALID,915.977,VALID,0,VALID,100,VALID,0,VALID,19.7482,VALID,29,VALID,0.0024858,
2008-12-04, 01:18:00,VALID,915.97,VALID,0,VALID,100,VALID,0,VALID,19.7447,VALID,28,VALID,0,
2008-12-04, 01:19:00,VALID,915.946,VALID,0,VALID,100,VALID,0,VALID,19.735,VALID,18,VALID,0.27381,
2008-12-04, 01:20:00,VALID,915.942,VALID,0,VALID,100,VALID,0,VALID,19.719,VALID,12,VALID,0.118862,
2008-12-04, 01:21:00,VALID,915.918,VALID,0,VALID,100,VALID,0.0509425,VALID,19.7053,VALID,8,VALID,0.257813,
2008-12-04, 01:22:00,VALID,915.911,VALID,0,VALID,100,VALID,-0.0509425,VALID,19.703,VALID,21,VALID,0.388579,
2008-12-04, 01:23:00,VALID,915.922,VALID,0,VALID,100,VALID,-0.135847,VALID,19.727,VALID,359,VALID,0.0777853,
2008-12-04, 01:24:00,VALID,915.926,VALID,0,VALID,100,VALID,-0.101885,VALID,19.7138,VALID,352,VALID,0.0105903,
2008-12-04, 01:25:00,VALID,915.923,VALID,0,VALID,100,VALID,-0.101885,VALID,19.7173,VALID,352,VALID,0,
2008-12-04, 01:26:00,VALID,915.881,VALID,0,VALID,100,VALID,-0.118866,VALID,19.6943,VALID,15,VALID,0,
2008-12-04, 01:27:00,VALID,915.88,VALID,0,VALID,100,VALID,-0.101885,VALID,19.6816,VALID,24,VALID,0.11616,
2008-12-04, 01:28:00,VALID,915.876,VALID,0,VALID,100,VALID,-0.118866,VALID,19.7013,VALID,24,VALID,0.0479911,
2008-12-04, 01:29:00,VALID,915.862,VALID,0,VALID,100,VALID,-0.118866,VALID,19.7008,VALID,21,VALID,0.118459,
2008-12-04, 01:30:00,VALID,915.867,VALID,0,VALID,100,VALID,-0.101885,VALID,19.6913,VALID,10,VALID,0.136905,
2008-12-04, 01:31:00,VALID,915.851,VALID,0,VALID,100,VALID,-0.118866,VALID,19.6918,VALID,12,VALID,0,
2008-12-04, 01:32:00,VALID,915.829,VALID,0,VALID,100,VALID,-0.118866,VALID,19.6911,VALID,13,VALID,0,
2008-12-04, 01:33:00,VALID,915.823,VALID,0,VALID,100,VALID,-0.101885,VALID,19.6848,VALID,352,VALID,0.00121528,
2008-12-04, 01:34:00,VALID,915.809,VALID,0,VALID,100,VALID,-0.135847,VALID,19.6813,VALID,16,VALID,0,
2008-12-04, 01:35:00,VALID,915.781,VALID,0,VALID,100,VALID,-0.135847,VALID,19.6943,VALID,318,VALID,0,
2008-12-04, 01:36:00,VALID,915.775,VALID,0,VALID,100,VALID,-0.101885,VALID,19.7075,VALID,22,VALID,0,
2008-12-04, 01:37:00,VALID,915.78,VALID,0,VALID,100,VALID,-0.0509425,VALID,19.71,VALID,9,VALID,0,
2008-12-04, 01:38:00,VALID,915.772,VALID,0,VALID,100,VALID,0,VALID,19.719,VALID,10,VALID,0,
2008-12-04, 01:39:00,VALID,915.76,VALID,0,VALID,100,VALID,0,VALID,19.7158,VALID,8,VALID,0.346484,
2008-12-04, 01:40:00,VALID,915.735,VALID,0,VALID,100,VALID,-0.0169808,VALID,19.7063,VALID,12,VALID,0.0012718,
2008-12-04, 01:41:00,VALID,915.733,VALID,0,VALID,100,VALID,0,VALID,19.6993,VALID,352,VALID,0,
2008-12-04, 01:42:00,VALID,915.727,VALID,0,VALID,100,VALID,0,VALID,19.7123,VALID,13,VALID,0,
2008-12-04, 01:43:00,VALID,915.708,VALID,0,VALID,100,VALID,-0.0169808,VALID,19.7188,VALID,18,VALID,0,
2008-12-04, 01:44:00,VALID,915.691,VALID,0,VALID,100,VALID,-0.0169808,VALID,19.742,VALID,28,VALID,0.182355,
2008-12-04, 01:45:00,VALID,915.69,VALID,0,VALID,100,VALID,-0.0169808,VALID,19.7382,VALID,25,VALID,0.594531,
2008-12-04, 01:46:00,VALID,915.679,VALID,0,VALID,100,VALID,0.0169808,VALID,19.7545,VALID,25,VALID,0.380145,
2008-12-04, 01:47:00,VALID,915.679,VALID,0,VALID,100,VALID,0,VALID,19.7577,VALID,1,VALID,0.324314,
2008-12-04, 01:48:00,VALID,915.683,VALID,0,VALID,100,VALID,-0.0339617,VALID,19.7874,VALID,12,VALID,0.0154433,
2008-12-04, 01:49:00,VALID,915.679,VALID,0,VALID,100,VALID,0,VALID,19.7899,VALID,2,VALID,0,
2008-12-04, 01:50:00,VALID,915.679,VALID,0,VALID,100,VALID,0,VALID,19.8031,VALID,7,VALID,0,
2008-12-04, 01:51:00,VALID,915.68,VALID,0,VALID,100,VALID,-0.0169808,VALID,19.8064,VALID,7,VALID,0,
2008-12-04, 01:52:00,VALID,915.664,VALID,0,VALID,100,VALID,-0.0339617,VALID,19.8134,VALID,8,VALID,0.0442073,
2008-12-04, 01:53:00,VALID,915.665,VALID,0,VALID,100,VALID,-0.0679233,VALID,19.7879,VALID,350,VALID,0,
2008-12-04, 01:54:00,VALID,915.671,VALID,0,VALID,100,VALID,-0.0679233,VALID,19.7976,VALID,350,VALID,0,
2008-12-04, 01:55:00,VALID,915.64,VALID,0,VALID,100,VALID,-0.0679233,VALID,19.7971,VALID,349,VALID,0,
2008-12-04, 01:56:00,VALID,915.623,VALID,0,VALID,100,VALID,-0.0679233,VALID,19.7777,VALID,340,VALID,0.0232372,
2008-12-04, 01:57:00,VALID,915.618,VALID,0,VALID,100,VALID,-0.0509425,VALID,19.7744,VALID,342,VALID,0.00279018,
2008-12-04, 01:58:00,VALID,915.596,VALID,0.2,VALID,100,VALID,-0.0509425,VALID,19.7807,VALID,349,VALID,0,
2008-12-04, 01:59:00,VALID,915.56,VALID,0,VALID,100,VALID,-0.0849042,VALID,19.7971,VALID,11,VALID,0.100229,
2008-12-04, 02:00:00,VALID,915.542,VALID,0,VALID,100,VALID,-0.0169808,VALID,19.7842,VALID,21,VALID,0,
2008-12-04, 02:01:00,VALID,915.535,VALID,0,VALID,100,VALID,-0.0339617,VALID,19.7647,VALID,5,VALID,0.00117188,
2008-12-04, 02:02:00,VALID,915.511,VALID,0,VALID,100,VALID,-0.0679233,VALID,19.7487,VALID,8,VALID,0,
2008-12-04, 02:03:00,VALID,915.487,VALID,0,VALID,100,VALID,-0.0169808,VALID,19.7125,VALID,7,VALID,0,
2008-12-04, 02:04:00,VALID,915.467,VALID,0,VALID,100,VALID,-0.0169808,VALID,19.7093,VALID,7,VALID,0.238567,
2008-12-04, 02:05:00,VALID,915.456,VALID,0,VALID,100,VALID,-0.0339617,VALID,19.703,VALID,5,VALID,0,
2008-12-04, 02:06:00,VALID,915.457,VALID,0,VALID,100,VALID,-0.0679233,VALID,19.6966,VALID,350,VALID,0.0520833,
2008-12-04, 02:07:00,VALID,915.448,VALID,0,VALID,100,VALID,-0.0679233,VALID,19.7035,VALID,13,VALID,0.172783,
2008-12-04, 02:08:00,VALID,915.435,VALID,0,VALID,100,VALID,-0.0509425,VALID,19.6931,VALID,24,VALID,0.221608,
2008-12-04, 02:09:00,VALID,915.421,VALID,0,VALID,100,VALID,-0.0509425,VALID,19.6833,VALID,24,VALID,0.0203488,
2008-12-04, 02:10:00,VALID,915.408,VALID,0,VALID,100,VALID,-0.0509425,VALID,19.6936,VALID,30,VALID,0.223514,
2008-12-04, 02:11:00,VALID,915.416,VALID,0,VALID,100,VALID,-0.0339617,VALID,19.6768,VALID,28,VALID,0,
2008-12-04, 02:12:00,VALID,915.404,VALID,0,VALID,100,VALID,-0.0849042,VALID,19.6541,VALID,353,VALID,0,
2008-12-04, 02:13:00,VALID,915.393,VALID,0,VALID,100,VALID,-0.0509425,VALID,19.6474,VALID,324,VALID,0,
2008-12-04, 02:14:00,VALID,915.377,VALID,0,VALID,100,VALID,-0.0339617,VALID,19.6444,VALID,341,VALID,0,
2008-12-04, 02:15:00,VALID,915.365,VALID,0,VALID,100,VALID,-0.0339617,VALID,19.6349,VALID,7,VALID,0.114329,
2008-12-04, 02:16:00,VALID,915.349,VALID,0,VALID,100,VALID,-0.0679233,VALID,19.6317,VALID,22,VALID,0.0910326,
2008-12-04, 02:17:00,VALID,915.346,VALID,0,VALID,100,VALID,-0.0509425,VALID,19.6319,VALID,18,VALID,0,
2008-12-04, 02:18:00,VALID,915.323,VALID,0,VALID,100,VALID,-0.0509425,VALID,19.6184,VALID,13,VALID,0,
2008-12-04, 02:19:00,VALID,915.317,VALID,0,VALID,100,VALID,-0.0849042,VALID,19.6022,VALID,10,VALID,0,
2008-12-04, 02:20:00,VALID,915.294,VALID,0,VALID,100,VALID,-0.0679233,VALID,19.6057,VALID,29,VALID,0,
2008-12-04, 02:21:00,VALID,915.264,VALID,0,VALID,100,VALID,-0.0679233,VALID,19.5895,VALID,22,VALID,0,
2008-12-04, 02:22:00,VALID,915.25,VALID,0,VALID,100,VALID,-0.0679233,VALID,19.5665,VALID,23,VALID,0,
2008-12-04, 02:23:00,VALID,915.233,VALID,0,VALID,100,VALID,-0.101885,VALID,19.587,VALID,6,VALID,0.0669643,
2008-12-04, 02:24:00,VALID,915.205,VALID,0,VALID,100,VALID,-0.0509425,VALID,19.5728,VALID,27,VALID,0,
2008-12-04, 02:25:00,VALID,915.183,VALID,0,VALID,100,VALID,-0.0509425,VALID,19.5568,VALID,19,VALID,0.00106534,
2008-12-04, 02:26:00,VALID,915.173,VALID,0,VALID,100,VALID,-0.0509425,VALID,19.5471,VALID,25,VALID,0,
2008-12-04, 02:27:00,VALID,915.155,VALID,0,VALID,100,VALID,-0.0509425,VALID,19.561,VALID,22,VALID,0,
2008-12-04, 02:28:00,VALID,915.122,VALID,0,VALID,100,VALID,-0.0679233,VALID,19.5473,VALID,14,VALID,0.0967685,
2008-12-04, 02:29:00,VALID,915.109,VALID,0,VALID,100,VALID,-0.0849042,VALID,19.5438,VALID,21,VALID,0.150347,
2008-12-04, 02:30:00,VALID,915.091,VALID,0,VALID,100,VALID,-0.0509425,VALID,19.5501,VALID,26,VALID,0,
2008-12-04, 02:31:00,VALID,915.103,VALID,0,VALID,100,VALID,-0.0509425,VALID,19.5533,VALID,16,VALID,0,
2008-12-04, 02:32:00,VALID,915.097,VALID,0,VALID,100,VALID,-0.0339617,VALID,19.57,VALID,12,VALID,0,
2008-12-04, 02:33:00,VALID,915.076,VALID,0,VALID,100,VALID,-0.0509425,VALID,19.5733,VALID,12,VALID,0.433689,
2008-12-04, 02:34:00,VALID,915.07,VALID,0,VALID,100,VALID,-0.0679233,VALID,19.583,VALID,24,VALID,0.0070503,
2008-12-04, 02:35:00,VALID,915.068,VALID,0,VALID,100,VALID,-0.0509425,VALID,19.5798,VALID,28,VALID,0.066311,
2008-12-04, 02:36:00,VALID,915.076,VALID,0,VALID,100,VALID,-0.0169808,VALID,19.5663,VALID,27,VALID,0.243164,
2008-12-04, 02:37:00,VALID,915.067,VALID,0,VALID,100,VALID,-0.0169808,VALID,19.573,VALID,38,VALID,0.132102,
2008-12-04, 02:38:00,VALID,915.073,VALID,0,VALID,100,VALID,0,VALID,19.5526,VALID,25,VALID,0,
2008-12-04, 02:39:00,VALID,915.085,VALID,0,VALID,100,VALID,0,VALID,19.5556,VALID,11,VALID,0,
2008-12-04, 02:40:00,VALID,915.091,VALID,0,VALID,100,VALID,0,VALID,19.569,VALID,21,VALID,0.0416101,
2008-12-04, 02:41:00,VALID,915.094,VALID,0,VALID,100,VALID,0.0339617,VALID,19.559,VALID,28,VALID,0.202172,
2008-12-04, 02:42:00,VALID,915.101,VALID,0,VALID,100,VALID,0.0169808,VALID,19.5458,VALID,42,VALID,0.00203804,
2008-12-04, 02:43:00,VALID,915.111,VALID,0,VALID,100,VALID,0,VALID,19.5398,VALID,44,VALID,0,
2008-12-04, 02:44:00,VALID,915.106,VALID,0,VALID,100,VALID,0.0169808,VALID,19.5239,VALID,42,VALID,0,
2008-12-04, 02:45:00,VALID,915.103,VALID,0,VALID,100,VALID,0.0169808,VALID,19.5139,VALID,32,VALID,0,
2008-12-04, 02:46:00,VALID,915.102,VALID,0,VALID,100,VALID,0.0169808,VALID,19.5134,VALID,32,VALID,0,
2008-12-04, 02:47:00,VALID,915.11,VALID,0,VALID,100,VALID,-0.0339617,VALID,19.5076,VALID,32,VALID,0,
2008-12-04, 02:48:00,VALID,915.107,VALID,0,VALID,100,VALID,0,VALID,19.4914,VALID,32,VALID,0,
2008-12-04, 02:49:00,VALID,915.111,VALID,0,VALID,100,VALID,0.0169808,VALID,19.4779,VALID,32,VALID,0,
2008-12-04, 02:50:00,VALID,915.116,VALID,0,VALID,100,VALID,0,VALID,19.4817,VALID,31,VALID,0,
2008-12-04, 02:51:00,VALID,915.108,VALID,0,VALID,100,VALID,-0.0169808,VALID,19.4782,VALID,30,VALID,0,
2008-12-04, 02:52:00,VALID,915.107,VALID,0,VALID,100,VALID,0.0169808,VALID,19.4944,VALID,21,VALID,0,
2008-12-04, 02:53:00,VALID,915.103,VALID,0,VALID,100,VALID,0,VALID,19.5011,VALID,21,VALID,0,
2008-12-04, 02:54:00,VALID,915.097,VALID,0,VALID,100,VALID,-0.0169808,VALID,19.5106,VALID,18,VALID,0,
2008-12-04, 02:55:00,VALID,915.082,VALID,0,VALID,100,VALID,0,VALID,19.5041,VALID,15,VALID,0,
2008-12-04, 02:56:00,VALID,915.056,VALID,0,VALID,100,VALID,0.0169808,VALID,19.5071,VALID,23,VALID,0,
2008-12-04, 02:57:00,VALID,915.041,VALID,0,VALID,100,VALID,0.0169808,VALID,19.5294,VALID,30,VALID,0,
2008-12-04, 02:58:00,VALID,915.033,VALID,0,VALID,100,VALID,0,VALID,19.5526,VALID,31,VALID,0,
2008-12-04, 02:59:00,VALID,915.019,VALID,0,VALID,100,VALID,0.0169808,VALID,19.5523,VALID,40,VALID,0,
2008-12-04, 03:00:00,VALID,915.011,VALID,0,VALID,100,VALID,0,VALID,19.5366,VALID,37,VALID,0,
2008-12-04, 03:01:00,VALID,915.012,VALID,0,VALID,100,VALID,0,VALID,19.5366,VALID,37,VALID,0,
2008-12-04, 03:02:00,VALID,915.037,VALID,0,VALID,100,VALID,0,VALID,19.5236,VALID,20,VALID,0,
2008-12-04, 03:03:00,VALID,915.026,VALID,0,VALID,100,VALID,0,VALID,19.5046,VALID,6,VALID,0,
2008-12-04, 03:04:00,VALID,915.047,VALID,0,VALID,100,VALID,0,VALID,19.4977,VALID,6,VALID,0.00635901,
2008-12-04, 03:05:00,VALID,915.056,VALID,0,VALID,100,VALID,0.0169808,VALID,19.5009,VALID,6,VALID,0,
2008-12-04, 03:06:00,VALID,915.07,VALID,0,VALID,100,VALID,0,VALID,19.4814,VALID,6,VALID,0,
2008-12-04, 03:07:00,VALID,915.074,VALID,0,VALID,100,VALID,-0.0509425,VALID,19.4759,VALID,6,VALID,0,
2008-12-04, 03:08:00,VALID,915.088,VALID,0,VALID,100,VALID,-0.118866,VALID,19.4505,VALID,6,VALID,0,
2008-12-04, 03:09:00,VALID,915.096,VALID,0,VALID,100,VALID,-0.0849042,VALID,19.4273,VALID,6,VALID,0,
2008-12-04, 03:10:00,VALID,915.112,VALID,0,VALID,100,VALID,-0.101885,VALID,19.418,VALID,14,VALID,0,
2008-12-04, 03:11:00,VALID,915.11,VALID,0,VALID,100,VALID,-0.152827,VALID,19.428,VALID,19,VALID,0,
2008-12-04, 03:12:00,VALID,915.119,VALID,0,VALID,100,VALID,-0.101885,VALID,19.4248,VALID,26,VALID,0,
2008-12-04, 03:13:00,VALID,915.122,VALID,0,VALID,100,VALID,-0.0849042,VALID,19.4018,VALID,29,VALID,0,
2008-12-04, 03:14:00,VALID,915.139,VALID,0,VALID,100,VALID,-0.101885,VALID,19.4118,VALID,29,VALID,0,
2008-12-04, 03:15:00,VALID,915.151,VALID,0,VALID,100,VALID,-0.0849042,VALID,19.4113,VALID,29,VALID,0,
2008-12-04, 03:16:00,VALID,915.149,VALID,0,VALID,100,VALID,-0.101885,VALID,19.3946,VALID,29,VALID,0,
2008-12-04, 03:17:00,VALID,915.152,VALID,0,VALID,100,VALID,-0.101885,VALID,19.3856,VALID,29,VALID,0,
2008-12-04, 03:18:00,VALID,915.164,VALID,0,VALID,100,VALID,-0.101885,VALID,19.3826,VALID,29,VALID,0,
2008-12-04, 03:19:00,VALID,915.169,VALID,0,VALID,100,VALID,-0.0339617,VALID,19.3427,VALID,29,VALID,0,
2008-12-04, 03:20:00,VALID,915.171,VALID,0,VALID,100,VALID,-0.0849042,VALID,19.3232,VALID,29,VALID,0,
2008-12-04, 03:21:00,VALID,915.172,VALID,0,VALID,100,VALID,-0.101885,VALID,19.3209,VALID,29,VALID,0,
2008-12-04, 03:22:00,VALID,915.165,VALID,0,VALID,100,VALID,-0.0169808,VALID,19.307,VALID,29,VALID,0,
2008-12-04, 03:23:00,VALID,915.146,VALID,0,VALID,100,VALID,-0.0339617,VALID,19.3032,VALID,29,VALID,0,
2008-12-04, 03:24:00,VALID,915.132,VALID,0,VALID,100,VALID,-0.0169808,VALID,19.2903,VALID,29,VALID,0,
2008-12-04, 03:25:00,VALID,915.132,VALID,0,VALID,100,VALID,0.0169808,VALID,19.2606,VALID,37,VALID,0.112909,
2008-12-04, 03:26:00,VALID,915.127,VALID,0,VALID,100,VALID,0,VALID,19.2606,VALID,41,VALID,0,
2008-12-04, 03:27:00,VALID,915.133,VALID,0,VALID,100,VALID,0.0169808,VALID,19.2571,VALID,41,VALID,0,
2008-12-04, 03:28:00,VALID,915.122,VALID,0,VALID,100,VALID,0.0169808,VALID,19.2311,VALID,41,VALID,0,
2008-12-04, 03:29:00,VALID,915.123,VALID,0,VALID,100,VALID,0.0339617,VALID,19.2119,VALID,41,VALID,0,
2008-12-04, 03:30:00,VALID,915.134,VALID,0,VALID,100,VALID,0,VALID,19.2212,VALID,41,VALID,0,
2008-12-04, 03:31:00,VALID,915.136,VALID,0,VALID,100,VALID,0.0339617,VALID,19.2479,VALID,41,VALID,0,
2008-12-04, 03:32:00,VALID,915.137,VALID,0,VALID,100,VALID,0.0169808,VALID,19.2376,VALID,41,VALID,0,
2008-12-04, 03:33:00,VALID,915.133,VALID,0,VALID,100,VALID,0.0169808,VALID,19.2506,VALID,41,VALID,0,
2008-12-04, 03:34:00,VALID,915.136,VALID,0,VALID,100,VALID,0.0339617,VALID,19.2471,VALID,41,VALID,0,
2008-12-04, 03:35:00,VALID,915.142,VALID,0,VALID,100,VALID,-0.0169808,VALID,19.2446,VALID,41,VALID,0,
2008-12-04, 03:36:00,VALID,915.151,VALID,0,VALID,100,VALID,0,VALID,19.2411,VALID,41,VALID,0,
2008-12-04, 03:37:00,VALID,915.142,VALID,0,VALID,100,VALID,-0.0339617,VALID,19.2284,VALID,41,VALID,0,
2008-12-04, 03:38:00,VALID,915.153,VALID,0,VALID,100,VALID,0,VALID,19.2219,VALID,41,VALID,0,
2008-12-04, 03:39:00,VALID,915.154,VALID,0,VALID,100,VALID,-0.0679233,VALID,19.2092,VALID,45,VALID,0,
2008-12-04, 03:40:00,VALID,915.169,VALID,0,VALID,100,VALID,0,VALID,19.2124,VALID,46,VALID,0,
2008-12-04, 03:41:00,VALID,915.187,VALID,0,VALID,100,VALID,0,VALID,19.2159,VALID,45,VALID,0,
2008-12-04, 03:42:00,VALID,915.178,VALID,0,VALID,100,VALID,0,VALID,19.177,VALID,45,VALID,0,
2008-12-04, 03:43:00,VALID,915.196,VALID,0,VALID,100,VALID,0,VALID,19.1607,VALID,45,VALID,0,
2008-12-04, 03:44:00,VALID,915.19,VALID,0,VALID,100,VALID,-0.0169808,VALID,19.1348,VALID,45,VALID,0,
2008-12-04, 03:45:00,VALID,915.186,VALID,0,VALID,100,VALID,0,VALID,19.1413,VALID,44,VALID,0,
2008-12-04, 03:46:00,VALID,915.183,VALID,0,VALID,100,VALID,-0.0169808,VALID,19.1475,VALID,38,VALID,0,
2008-12-04, 03:47:00,VALID,915.173,VALID,0,VALID,100,VALID,-0.0169808,VALID,19.141,VALID,34,VALID,0.063519,
2008-12-04, 03:48:00,VALID,915.146,VALID,0,VALID,100,VALID,-0.0169808,VALID,19.1183,VALID,32,VALID,0,
2008-12-04, 03:49:00,VALID,915.13,VALID,0,VALID,100,VALID,-0.0509425,VALID,19.1251,VALID,21,VALID,0,